Location: Plainartige
(45.6866°N, 1.7993°E)
Time: 18:11:18
(UTC+00:00)

deb r/b Ablestar - Pass Details

Date: 03 October 2021
Orbit: 843 x 997 km, 67.7° (Epoch: 21 October)

Event Time Altitude Azimuth Distance (km) Brightness Sun altitude
Rises 21:20:47 0° 314° (NW) 3,425 ? -38.5°
Reaches altitude 10° 21:24:06 10° 294° (WNW) 2,500 ? -39.0°
Enters shadow 21:27:00 16° 264° (W) 2,089 ? -39.3°
